Voreifelwetter - Wetterstation Drove - Standort 5043'47" - 0630'49"
Wetterdaten: aktuell Mittwoch, 29.05.2024 05:15
Datum Zeit Temp. A. Feuchte A. Luftdruck Regen Wind Richtung Richtung Sonnenschein Helligkeit Taupunkt Windchill
29.05.2024 05:15 15,0 C 81 % 1009,3 hPa 0,0 mm 13,3 km/h (3 Bft) S22.5 185 0 min 0 lux 11,8 C 15,0 C
29.05.2024 05:00 15,0 C 81 % 1009,3 hPa 0,0 mm 12,1 km/h (2 Bft) S45 185 0 min 0 lux 11,8 C 15,0 C
29.05.2024 04:45 15,0 C 81 % 1009,3 hPa 0,0 mm 12,5 km/h (3 Bft) S22.5 180 0 min 0 lux 11,8 C 15,0 C
29.05.2024 04:30 15,2 C 81 % 1010,3 hPa 0,0 mm 10,4 km/h (2 Bft) S45 190 0 min 0 lux 12,0 C 15,2 C
29.05.2024 04:15 15,3 C 81 % 1010,3 hPa 0,0 mm 10,3 km/h (2 Bft) S67.5 190 0 min 0 lux 12,1 C 15,3 C
29.05.2024 04:00 15,3 C 81 % 1010,3 hPa 0,0 mm 15,8 km/h (3 Bft) SW45 230 0 min 0 lux 12,1 C 15,3 C
29.05.2024 03:45 15,2 C 82 % 1010,3 hPa 0,0 mm 10,9 km/h (2 Bft) S-SW45 195 0 min 0 lux 12,1 C 15,2 C
29.05.2024 03:30 15,2 C 82 % 1011,3 hPa 0,0 mm 5,6 km/h (1 Bft) SW45 215 0 min 0 lux 12,1 C 15,2 C
29.05.2024 03:15 15,1 C 82 % 1011,3 hPa 0,0 mm 9,6 km/h (2 Bft) S-SW45 205 0 min 0 lux 12,0 C 15,1 C
29.05.2024 03:00 15,0 C 82 % 1011,3 hPa 0,0 mm 9,4 km/h (2 Bft) NW22.5 305 0 min 0 lux 12,0 C 15,0 C
29.05.2024 02:45 15,0 C 83 % 1011,3 hPa 0,0 mm 17,1 km/h (3 Bft) S-SW45 195 0 min 0 lux 12,1 C 15,0 C
29.05.2024 02:30 15,0 C 83 % 1011,3 hPa 0,0 mm 11,2 km/h (2 Bft) S-SW67.5 200 0 min 0 lux 12,1 C 15,0 C
29.05.2024 02:15 15,0 C 83 % 1011,3 hPa 0,0 mm 8,3 km/h (2 Bft) SW67.5 225 0 min 0 lux 12,1 C 15,0 C
29.05.2024 02:00 15,0 C 83 % 1011,3 hPa 0,0 mm 9,6 km/h (2 Bft) W-SW67.5 255 0 min 0 lux 12,1 C 15,0 C
29.05.2024 01:45 15,0 C 83 % 1011,3 hPa 0,0 mm 9,2 km/h (2 Bft) W-SW45 250 0 min 0 lux 12,1 C 15,0 C
29.05.2024 01:30 15,1 C 83 % 1012,3 hPa 0,0 mm 12,6 km/h (3 Bft) SW67.5 225 0 min 0 lux 12,2 C 15,1 C
29.05.2024 01:15 15,0 C 83 % 1012,3 hPa 0,0 mm 14,9 km/h (3 Bft) SW67.5 220 0 min 0 lux 12,1 C 15,0 C
29.05.2024 00:59 15,0 C 83 % 1012,3 hPa 0,0 mm 10,3 km/h (2 Bft) W-NW67.5 285 0 min 0 lux 12,1 C 15,0 C
29.05.2024 00:45 15,0 C 82 % 1012,3 hPa 0,0 mm 13,1 km/h (3 Bft) S-SW67.5 210 0 min 0 lux 12,0 C 15,0 C
29.05.2024 00:30 15,0 C 82 % 1012,3 hPa 0,0 mm 17,5 km/h (3 Bft) SW67.5 225 0 min 0 lux 12,0 C 15,0 C
29.05.2024 00:15 15,0 C 83 % 1012,3 hPa 0,0 mm 11,4 km/h (2 Bft) S-SW45 200 0 min 0 lux 12,1 C 15,0 C
29.05.2024 00:00 15,0 C 82 % 1012,3 hPa 0,0 mm 13,3 km/h (3 Bft) W-NW67.5 290 0 min 0 lux 12,0 C 15,0 C
_ Min-Zeit 00:00 04:00 04:45 - 03:30 - - - - 04:45 00:00
Minimum _ 15,0 C 81 % 1009,3 hPa - 5,6 km/h (1 Bft) - - - - 11,8 C 15,0 C
_ Max-Zeit 04:00 00:15 00:00 00:00 00:30 - - 00:00 00:00 01:30 04:00
Maximum _ 15,3 C 83 % 1012,3 hPa 0,0 mm 17,5 km/h
SW (3 Bft)
- - 0 min 0,000 klux 12,2 C 15,3 C
Durchschnitt _ 15,1 C 82 % 1011,2 hPa #0,0 mm 11,8 km/h (2 Bft) S-SW - #0 min. 0,000 klux 12,0 C 15,1 C